OKEAN-0
1 25860U 99039A 11188.52967319 .00000089 00000-0 21021-4 0 3533
2 25860 097.8850 154.4157 0000738 040.5042 319.6219 14.73800901643658
NOAA-16
1 26536U 00055A 11188.26325247 .00000053 00000-0 53623-4 0 3571
2 26536 099.1384 219.2124 0010229 340.8506 019.2259 14.12629897556192
NOAA-17
1 27453U 02032A 11187.77622092 .00000209 00000-0 10813-3 0 03453
2 27453 098.3779 226.5869 0012801 092.0707 268.1920 14.24289649469445
NOAA-18
1 28654U 05018A 11187.80650873 -.00000101 00000-0 -30572-4 0 08257
2 28654 098.9969 139.0033 0015253 051.5904 308.6645 14.11488424315699
NOAA-19
1 33591U 09005A 11187.80801224 .00000303 00000-0 19204-3 0 00163
2 33591 098.8270 127.6335 0013255 282.2397 077.7287 14.11182569124152
HUBBLE
1 20580U 90037B 11187.59487351 .00000584 00000-0 31455-4 0 7935
2 20580 028.4708 249.6712 0003231 329.0398 031.0007 15.01414384962571
ISS
1 25544U 98067A 11189.04362252 .00045836 00000-0 56208-3 0 6700
2 25544 051.6415 055.6573 0010868 302.0364 219.4492 15.59797364724163
CO-58
1 28895U 05043F 11187.59589457 .00000329 00000-0 77438-4 0 09171
2 28895 097.9630 063.2317 0017953 156.5676 203.6371 14.60127534303079
FALCON
1 30776U 07006E 11187.55095983 .00000926 00000-0 67375-4 0 01236
2 30776 035.4334 229.2319 0001805 273.3208 086.7302 15.04723940237962
MAST
1 31126U 07012K 11187.92715400 .00000188 00000-0 52243-4 0 02034
2 31126 097.8921 214.0390 0095963 109.1774 251.9841 14.53766701223952
CAPE1
1 31130U 07012P 11188.55180549 .00000052 00000-0 22157-4 0 2175
2 31130 097.8984 211.3639 0103548 117.7980 243.3698 14.52414795223592
COMPASS
1 32787U 08021E 11187.71729790 .00000370 00000-0 52535-4 0 00320
2 32787 097.8467 251.1707 0016889 111.3746 248.9265 14.82477552172458
AAUSAT2
1 32788U 08021F 11186.86867418 .00000486 00000-0 66672-4 0 00219
2 32788 097.8478 250.5686 0016369 114.2480 246.0464 14.82665175172348
DO-64
1 32789U 08021G 11187.68172636 .00001421 00000-0 18024-3 0 00387
2 32789 097.8562 252.4072 0016573 110.1455 250.1552 14.83165014172473
CO-66
1 32791U 08021J 11187.73809645 .00000564 00000-0 77272-4 0 00257
2 32791 097.8465 251.1254 0017476 110.7202 249.5919 14.82161675172405
RS-30
1 32953U 08025A 11188.43067285 .00000010 00000-0 00000 0 0 8811
2 32953 082.5018 150.1391 0019078 347.8156 012.2461 12.43014010141601
TACSAT-3
1 35001U 09028A 11187.91000131 .00011533 00000-0 20568-3 0 06366
2 35001 040.4543 052.9196 0022955 353.2435 006.8076 15.49572501120145
PHARMSAT
1 35002U 09028B 11188.78560602 .00009798 00000-0 17820-3 0 5914
2 35002 040.4690 045.4631 0024929 007.3463 352.7738 15.49086808120307
HAWKSAT1
1 35003U 09028C 11187.91116398 .00063812 00000-0 54649-3 0 06792
2 35003 040.4542 018.5283 0021123 017.4776 342.6766 15.68163341120522
CP6
1 35004U 09028D 11187.89753893 .00118591 00000-0 69334-3 0 06812
2 35004 040.4528 008.3502 0018050 015.6239 344.5146 15.76945206120628
METEOR-M
1 35865U 09049A 11188.55899087 .00000176 00000-0 10000-3 0 5252
2 35865 098.7042 243.4228 0002277 353.6303 006.4845 14.21840356 93480
RS-38
1 35869U 09049E 11188.48619085 .00000177 00000-0 10000-3 0 5190
2 35869 098.7011 243.3854 0004464 344.1071 015.9966 14.22015879 93485
